[[{"header":{"parameterUnit":"m.s-1","parameterCategory":1,"la1":30.2991,"la2":30.254,"lo1":-89.0895,"lo2":-89.0444,"dy":0.0017,"dx":0.0017,"nx":28,"ny":28,"refTime":"2025-11-11T09:00:00:Z","depth":0,"parameterNumber":2,"parameterNumberName":"U-component_of_WINDS"},"data":[0,0,0,0,0,0,0,0,0,0,0,0,0,0,0,0,0,0,0,0,0,0,0,0,0,0,0,0,0,0,0,0,0,0,0,0,0,0,0,0,0,0,0,0,0,0,0,0,0,0,0,0,0,0,0,0,0,0,1.7689,1.769,0,1.7795,1.7796,1.7797,1.7779,1.7777,1.7775,1.7773,1.7882,1.7886,1.7891,0,0,0,0,0,0,0,0,0,0,0,0,0,1.7467,1.7471,1.7688,1.769,1.7691,1.7795,1.7796,1.7797,1.7779,1.7777,1.7774,1.7772,1.788,1.7886,1.7891,0,0,0,0,0,0,0,0,0,0,0,0,0,1.7567,1.7473,1.7688,1.7694,1.7696,1.7794,1.7796,1.7798,1.7779,1.7777,1.7774,1.7771,1.7878,1.7885,1.7892,1.7991,0,0,1.7913,1.7916,0,0,0,0,0,0,0,0,1.7562,1.7576,1.7692,1.7694,1.7696,1.777,1.7758,1.7863,1.778,1.7748,1.7773,1.777,1.7847,1.7856,1.7882,1.7996,1.8001,1.7914,1.7918,1.7921,1.7923,0,0,0,0,0,0,0,1.7555,1.7571,1.773,1.7694,1.7696,1.7691,1.7702,1.7778,1.7812,1.775,1.7749,1.7762,1.7847,1.7876,1.7885,1.8002,1.7914,1.792,1.7924,1.7927,1.8199,1.8202,0,0,0,0,0,0,1.7546,1.7565,1.7727,1.7734,1.7621,1.7697,1.771,1.7749,1.7811,1.7818,1.7764,1.7761,1.7865,1.7877,1.7889,1.8006,1.7921,1.7927,1.7931,1.8196,1.8199,1.8203,0,0,0,0,0,0,1.7542,1.7561,1.7723,1.7649,1.7669,1.7704,1.7749,1.7753,1.7781,1.7821,1.7827,1.7787,1.7863,1.7879,1.7965,1.8009,1.7931,1.7937,1.8192,1.8197,1.8201,1.8242,0,0,0,0,0,0,1.7535,1.7559,1.7598,1.765,1.7673,1.7798,1.7752,1.7757,1.7793,1.779,1.7844,1.7851,1.7862,1.7954,1.7972,1.8017,1.7942,1.8188,1.8194,1.82,1.8237,1.8248,1.8257,0,0,0,0,0,1.7527,1.7606,1.76,1.762,1.7722,1.7801,1.7814,1.7826,1.7797,1.7835,1.7861,1.7849,1.8002,1.7963,1.7983,1.8031,1.8185,1.8192,1.8199,1.8233,1.8246,1.8257,0,0,0,0,0,0,1.7559,1.7613,1.7607,1.7705,1.7748,1.7797,1.7846,1.784,1.7892,1.7887,1.7899,1.7912,1.7998,1.8024,1.798,1.8128,1.809,1.8101,1.8108,1.8121,1.8131,1.8122,1.7948,0,0,0,0,0,1.7577,1.7636,1.7681,1.7763,1.7785,1.7812,1.7846,1.7852,1.7897,1.7915,1.7947,1.7991,1.8049,1.8087,1.8143,1.8241,1.8251,1.8284,1.8294,1.8302,1.831,1.8361,1.8375,1.8225,1.8225,1.8225,0,0,1.7615,1.7652,1.7689,1.777,1.7804,1.7864,1.7827,1.7893,1.7937,1.7925,1.8007,1.8033,1.8083,1.8174,1.8217,1.8198,1.8354,1.831,1.8316,1.8321,1.837,1.8384,1.8397,1.823,1.8229,1.8228,0,0,1.7715,1.775,1.7821,1.7855,1.7907,1.7924,1.7941,1.7991,1.8007,1.809,1.8081,1.8134,1.8234,1.8269,1.83,1.841,1.84,1.8428,1.8479,1.8529,1.8541,1.8551,1.8588,1.8601,1.8437,1.8438,1.8438,0,1.7756,1.7846,1.7858,1.7924,1.7958,1.795,1.802,1.8053,1.8121,1.8144,1.8123,1.8246,1.828,1.8378,1.8405,1.8431,1.8449,1.8421,1.8538,1.8549,1.8559,1.8594,1.8608,1.844,1.844,1.844,1.8439,0,1.7892,1.7955,1.8006,1.807,1.8111,1.8179,1.8199,1.8239,1.8241,1.826,1.8343,1.8382,1.8444,1.8468,1.8471,1.8567,1.8553,1.8535,1.8496,1.8576,1.8609,1.8622,1.8444,1.8443,1.8443,1.8442,0,0,1.8015,1.8083,1.8101,1.8129,1.8185,1.8233,1.83,1.836,1.8392,1.8439,1.8494,1.8578,1.856,1.8595,1.8602,1.8646,1.8727,1.8622,1.8623,1.8638,1.8831,1.8843,1.8859,1.8722,1.8724,1.8726,1.8826,0,1.8118,1.8235,1.8247,1.8352,1.8408,1.84,1.8458,1.8497,1.8517,1.8567,1.8588,1.8646,1.8621,1.8641,1.8684,1.8708,1.8766,1.8701,1.8771,1.8773,1.8756,1.8876,1.889,1.8982,1.884,1.8842,1.8844,0,1.8254,1.8302,1.8413,1.8458,1.8482,1.8534,1.8588,1.8637,1.8681,1.8692,1.873,1.873,1.8797,1.8757,1.8848,1.8804,1.8833,1.8849,1.8853,1.8858,1.8812,1.8882,1.9012,1.9025,1.8865,1.8863,1.8861,0,1.8328,1.8422,1.8499,1.8524,1.8579,1.8615,1.864,1.8681,1.8716,1.8764,1.8786,1.8841,1.8871,1.8913,1.8928,1.8897,1.9017,1.8979,1.9027,1.9026,1.9051,1.9049,1.9184,1.9074,1.9074,1.9073,1.9073,0,1.844,1.8507,1.8533,1.858,1.8654,1.8667,1.874,1.8762,1.8799,1.8849,1.8847,1.8894,1.8911,1.8961,1.8973,1.9045,1.906,1.9069,1.9071,1.9068,1.9066,1.9086,1.9079,1.9077,1.9076,1.9075,1.9075,0,1.8536,1.8556,1.8639,1.8684,1.8697,1.8749,1.8787,1.8832,1.885,1.8914,1.893,1.8958,1.9017,1.9035,1.9107,1.9114,1.9198,1.9196,1.9183,1.9182,1.9228,1.9222,1.9379,1.9399,1.9277,1.9278,1.9279,0,1.8605,1.8656,1.8706,1.8739,1.8765,1.882,1.8854,1.8868,1.8904,1.8957,1.8995,1.9052,1.9099,1.9193,1.9219,1.9273,1.927,1.9321,1.9278,1.9272,1.9267,1.9263,1.9267,1.9329,1.933,1.9331,1.9332,0,1.8724,1.8731,1.8782,1.8835,1.8876,1.8919,1.896,1.8987,1.9007,1.9047,1.9106,1.9143,1.9214,1.927,1.9325,1.9349,1.9343,1.9345,1.9359,1.9355,1.9344,1.9348,1.9202,1.9341,1.934,1.934,1.9339,1.9339,1.8807,1.8851,1.8892,1.8947,1.898,1.9017,1.9061,1.9084,1.9133,1.9192,1.9197,1.9261,1.9301,1.9373,1.94,1.9449,1.9435,1.9455,1.946,1.9464,1.9466,1.9338,1.946,1.9459,1.9459,1.9459,1.9459,0,1.8924,1.895,1.9001,1.9057,1.91,1.9091,1.9136,1.9172,1.9227,1.9266,1.9311,1.9378,1.9432,1.9463,1.9517,1.955,1.9548,1.9563,1.956,1.9565,1.9477,1.9459,1.9563,1.9563,1.9563,1.9563,1.9563,1.9563,1.899,1.9063,1.9074,1.9162,1.9187,1.9249,1.9274,1.9309,1.9339,1.9414,1.9458,1.9478,1.9512,1.9568,1.9617,1.9624,1.9643,1.966,1.9665,1.9582,1.9572,1.9561,1.9544,1.9664,1.9664,1.9748,1.9749,1.975]},{"header":{"parameterUnit":"m.s-1","parameterCategory":1,"la1":30.2991,"la2":30.254,"lo1":-89.0895,"lo2":-89.0444,"dy":0.0017,"dx":0.0017,"nx":28,"ny":28,"refTime":"2025-11-11T09:00:00:Z","depth":0,"parameterNumber":3,"parameterNumberName":"V-component_of_WINDS"},"data":[0,0,0,0,0,0,0,0,0,0,0,0,0,0,0,0,0,0,0,0,0,0,0,0,0,0,0,0,0,0,0,0,0,0,0,0,0,0,0,0,0,0,0,0,0,0,0,0,0,0,0,0,0,0,0,0,0,0,3.0149,3.0148,0,3.0084,3.0083,3.0082,2.9982,2.9981,2.9979,2.9977,2.991,2.991,2.991,0,0,0,0,0,0,0,0,0,0,0,0,0,3.0185,3.0185,3.0149,3.0148,3.0147,3.0084,3.0083,3.0082,2.9983,2.998,2.9978,2.9976,2.991,2.991,2.991,0,0,0,0,0,0,0,0,0,0,0,0,0,3.015,3.0185,3.0149,3.009,3.0084,3.0084,3.0083,3.0082,2.9983,2.998,2.9978,2.9975,2.991,2.991,2.991,2.9962,0,0,2.9909,2.9909,0,0,0,0,0,0,0,0,3.0152,3.0149,3.01,3.0094,3.0088,3.0038,3.0071,3.0042,2.9984,3.0022,2.9977,2.9974,2.9955,2.9951,2.9944,2.9959,2.9956,2.9909,2.9909,2.9909,2.9909,0,0,0,0,0,0,0,3.0155,3.0151,3.0123,3.0099,3.0092,3.0066,3.0058,3.0065,3.0004,3.0018,3.0011,3.0004,2.9951,2.9945,2.9942,2.9955,2.9909,2.9909,2.9909,2.9909,3.0004,3.0006,0,0,0,0,0,0,3.0166,3.0154,3.0125,3.0121,3.0114,3.0068,3.0059,3.0057,3.0004,2.9993,3.0007,3.0,2.9946,2.9942,2.9939,2.9993,2.9909,2.9909,2.9908,3.0001,3.0004,3.0007,0,0,0,0,0,0,3.0167,3.0164,3.0128,3.0135,3.0129,3.007,3.0069,3.0057,3.0051,2.9995,2.9983,3.0012,2.9944,2.994,2.9956,2.999,2.9908,2.9908,2.9998,3.0002,3.0006,3.0105,0,0,0,0,0,0,3.0169,3.0165,3.0185,3.0137,3.0129,3.0147,3.0071,3.0058,3.0051,3.0041,2.9997,2.9987,2.9942,2.9957,2.9956,2.9988,2.9908,2.9995,3.0,3.0004,3.0098,3.0111,3.0123,0,0,0,0,0,3.017,3.0217,3.0187,3.0184,3.0153,3.0149,3.0144,3.0092,3.0054,3.0073,3.0036,2.9988,2.9987,2.9959,2.9957,2.999,2.9992,2.9998,3.0004,3.0092,3.0109,3.0123,0,0,0,0,0,0,3.0272,3.0209,3.0176,3.0208,3.0184,3.0132,3.0154,3.0112,3.0098,3.009,3.0025,3.0016,3.004,3.0017,2.9987,3.0035,2.9982,2.9988,3.005,3.0065,3.0077,3.0081,2.9908,0,0,0,0,0,3.0298,3.0301,3.0246,3.0279,3.0269,3.0214,3.0211,3.0172,3.0145,3.0135,3.01,3.0075,3.0068,3.0066,3.0057,3.0095,3.0081,3.0116,3.0128,3.0139,3.0144,3.0158,3.0172,3.0027,3.0027,3.0027,0,0,3.0352,3.0318,3.0324,3.0299,3.0276,3.0279,3.0206,3.0214,3.0214,3.0136,3.0148,3.0122,3.0089,3.0116,3.0126,3.0097,3.0181,3.0146,3.0155,3.0154,3.0166,3.0179,3.0192,3.0031,3.003,3.0029,0,0,3.045,3.0427,3.045,3.0428,3.0395,3.0357,3.0363,3.0317,3.0296,3.0307,3.0247,3.0247,3.0238,3.0217,3.0205,3.0293,3.0247,3.0292,3.0356,3.0371,3.0382,3.0392,3.042,3.0432,3.0298,3.0298,3.0298,0,3.0521,3.0524,3.0468,3.0477,3.0467,3.0395,3.0417,3.0399,3.0365,3.0358,3.0327,3.0312,3.0286,3.0304,3.0325,3.0319,3.0321,3.0296,3.0386,3.0395,3.0403,3.0429,3.044,3.0303,3.0303,3.0302,3.0302,0,3.0611,3.0614,3.0637,3.0604,3.0596,3.0613,3.0557,3.0556,3.0518,3.0483,3.0494,3.046,3.0441,3.0443,3.0407,3.0455,3.0438,3.0398,3.0342,3.0423,3.0446,3.0456,3.0311,3.0309,3.0308,3.0306,0,0,3.0772,3.0706,3.0716,3.0698,3.0655,3.0655,3.0667,3.0648,3.0647,3.0626,3.0632,3.0625,3.0586,3.0572,3.0532,3.0546,3.0613,3.0502,3.0501,3.0521,3.066,3.0689,3.0702,3.0583,3.0585,3.0586,3.0662,0,3.086,3.0877,3.0825,3.0854,3.0854,3.0785,3.0795,3.0769,3.0736,3.0731,3.0695,3.0689,3.064,3.0631,3.0641,3.0603,3.064,3.0597,3.0586,3.0586,3.0593,3.0715,3.0746,3.0819,3.0671,3.0673,3.0674,0,3.0965,3.0947,3.0976,3.0928,3.0926,3.0936,3.0913,3.0909,3.0877,3.0852,3.0836,3.0789,3.0795,3.0743,3.0749,3.0721,3.0713,3.0694,3.0695,3.069,3.0633,3.071,3.0842,3.0852,3.0688,3.0687,3.0686,0,3.1075,3.1059,3.1073,3.1061,3.1006,3.1014,3.0992,3.0957,3.0948,3.0928,3.092,3.0902,3.0891,3.0877,3.0825,3.0793,3.0836,3.078,3.0813,3.0814,3.0823,3.0823,3.0953,3.0824,3.0823,3.0823,3.0823,0,3.1177,3.1197,3.1121,3.113,3.1149,3.1089,3.1109,3.108,3.1049,3.1049,3.0989,3.099,3.0923,3.0916,3.0876,3.0885,3.0881,3.086,3.0848,3.0863,3.0866,3.0856,3.0848,3.0826,3.0825,3.0825,3.0824,0,3.1303,3.1254,3.1264,3.1211,3.1198,3.1214,3.1167,3.1172,3.1136,3.1136,3.1133,3.1076,3.1064,3.1011,3.0988,3.096,3.0982,3.0961,3.0993,3.0985,3.1019,3.1015,3.1145,3.1157,3.1023,3.1025,3.1026,0,3.137,3.1383,3.1331,3.1326,3.1306,3.1301,3.1291,3.1232,3.1224,3.1187,3.1195,3.1179,3.1162,3.1147,3.1102,3.1083,3.1059,3.1106,3.1056,3.107,3.1056,3.1054,3.1054,3.1116,3.1118,3.1119,3.112,0,3.1493,3.1467,3.1455,3.1435,3.1424,3.1405,3.1382,3.1382,3.1316,3.131,3.1297,3.1284,3.1259,3.1243,3.1215,3.119,3.1143,3.1137,3.1142,3.1157,3.1173,3.1161,3.1019,3.1133,3.1132,3.1131,3.1131,3.113,3.1588,3.1596,3.1559,3.1547,3.1524,3.1503,3.1504,3.1467,3.1456,3.1431,3.1397,3.1388,3.1352,3.131,3.1288,3.1279,3.1253,3.1263,3.1264,3.1267,3.1273,3.1177,3.1274,3.1274,3.1273,3.1273,3.1273,0,3.1705,3.1678,3.1668,3.1637,3.1627,3.1585,3.1557,3.1551,3.1544,3.1515,3.1499,3.1483,3.1466,3.1419,3.1397,3.1398,3.1376,3.1394,3.1392,3.1386,3.1299,3.1295,3.1412,3.1412,3.1412,3.1412,3.1412,3.1412,3.1765,3.1774,3.1744,3.1739,3.1711,3.1702,3.1689,3.1669,3.1645,3.163,3.1615,3.1585,3.1547,3.1522,3.1503,3.1489,3.1482,3.1507,3.1486,3.1406,3.1393,3.138,3.1375,3.1507,3.1507,3.1573,3.1574,3.1574]}]]